Data No,UTC Date,UTC Time,Latitude,Longitude,Course(deg),Temp(degC),Sal(psu)
740,2022/8/16,12:19,35-35.79N,139-47.13E,213,27.03,24.3982
741,2022/8/16,12:20,35-35.59N,139-47.08E,179,27.134,24.7205
742,2022/8/16,12:21,35-35.38N,139-47.20E,145,26.955,24.7432
743,2022/8/16,12:22,35-35.18N,139-47.39E,143,26.745,24.5656
744,2022/8/16,12:23,35-34.99N,139-47.60E,133,26.558,25.0184
745,2022/8/16,12:24,35-34.80N,139-47.86E,131,26.851,25.5693
746,2022/8/16,12:25,35-34.61N,139-48.13E,130,26.836,26.1962
747,2022/8/16,12:26,35-34.43N,139-48.40E,128,26.706,25.9677
748,2022/8/16,12:27,35-34.24N,139-48.70E,128,26.644,26.2334
749,2022/8/16,12:28,35-34.05N,139-48.99E,128,26.554,26.7754
750,2022/8/16,12:29,35-33.86N,139-49.29E,129,26.561,27.2204
751,2022/8/16,12:30,35-33.67N,139-49.59E,127,26.611,27.5785
752,2022/8/16,12:31,35-33.48N,139-49.88E,127,26.74,27.5342
753,2022/8/16,12:32,35-33.25N,139-50.23E,127,26.808,27.4904
754,2022/8/16,12:33,35-33.03N,139-50.52E,137,26.852,27.3104
755,2022/8/16,12:34,35-32.74N,139-50.65E,161,26.895,27.4002
756,2022/8/16,12:35,35-32.45N,139-50.75E,163,26.911,27.4275
757,2022/8/16,12:36,35-32.16N,139-50.85E,164,26.891,27.5072
758,2022/8/16,12:37,35-31.85N,139-50.96E,164,26.826,27.4883
759,2022/8/16,12:38,35-31.54N,139-51.03E,168,26.77,27.529
760,2022/8/16,12:39,35-31.24N,139-51.11E,167,26.65,27.7158
761,2022/8/16,12:40,35-30.95N,139-51.18E,170,26.737,27.9182
762,2022/8/16,12:41,35-30.64N,139-51.19E,182,26.85,28.4087
763,2022/8/16,12:42,35-30.35N,139-51.10E,192,26.849,28.7456
764,2022/8/16,12:43,35-30.05N,139-51.02E,192,26.822,28.9541
765,2022/8/16,12:44,35-29.76N,139-50.89E,203,26.855,29.0561
766,2022/8/16,12:45,35-29.49N,139-50.73E,205,26.763,29.0552
767,2022/8/16,12:46,35-29.21N,139-50.56E,205,26.721,29.1202
768,2022/8/16,12:47,35-28.97N,139-50.31E,224,26.636,29.2202
769,2022/8/16,12:48,35-28.78N,139-50.01E,231,26.549,29.3934
770,2022/8/16,12:49,35-28.59N,139-49.72E,230,26.499,29.5265
771,2022/8/16,12:50,35-28.40N,139-49.44E,229,26.477,29.6898
772,2022/8/16,12:51,35-28.20N,139-49.15E,229,26.399,29.7427
773,2022/8/16,12:52,35-28.02N,139-48.88E,230,26.349,29.7919
774,2022/8/16,12:53,35-27.80N,139-48.56E,229,26.32,29.881
775,2022/8/16,12:54,35-27.63N,139-48.29E,232,26.273,29.9241
776,2022/8/16,12:55,35-27.44N,139-48.01E,232,26.242,29.948
777,2022/8/16,12:56,35-27.26N,139-47.71E,232,26.24,29.9824
778,2022/8/16,12:57,35-27.07N,139-47.40E,232,26.175,30.0066
779,2022/8/16,12:58,35-26.89N,139-47.11E,233,26.162,30.0741
780,2022/8/16,12:59,35-26.71N,139-46.80E,233,26.123,30.1261
781,2022/8/16,13:00,35-26.52N,139-46.50E,233,26.168,30.1872
782,2022/8/16,13:01,35-26.35N,139-46.21E,233,26.209,30.1872
783,2022/8/16,13:02,35-26.16N,139-45.91E,233,26.097,30.1795
784,2022/8/16,13:03,35-25.98N,139-45.62E,233,26.043,30.1941
785,2022/8/16,13:04,35-25.78N,139-45.30E,232,25.992,30.2863
786,2022/8/16,13:05,35-25.61N,139-45.03E,232,25.918,30.3183
787,2022/8/16,13:06,35-25.43N,139-44.74E,232,25.781,30.3725
788,2022/8/16,13:07,35-25.24N,139-44.44E,232,25.447,30.483
789,2022/8/16,13:08,35-25.06N,139-44.15E,232,25.116,30.6985
790,2022/8/16,13:09,35-24.87N,139-43.85E,231,24.928,30.924
791,2022/8/16,13:10,35-24.69N,139-43.57E,232,24.978,31.1344
792,2022/8/16,13:11,35-24.50N,139-43.28E,232,25.018,31.215
793,2022/8/16,13:12,35-24.27N,139-43.05E,208,24.962,31.2655
794,2022/8/16,13:13,35-24.01N,139-42.91E,202,24.858,31.3067
795,2022/8/16,13:14,35-23.73N,139-42.77E,202,24.798,31.3661
796,2022/8/16,13:15,35-23.45N,139-42.63E,202,24.941,31.418
797,2022/8/16,13:16,35-23.14N,139-42.47E,204,25.248,31.398
798,2022/8/16,13:17,35-22.85N,139-42.34E,195,25.147,31.3572
799,2022/8/16,13:18,35-22.57N,139-42.38E,173,25.271,31.2114
800,2022/8/16,13:19,35-22.26N,139-42.42E,175,25.12,31.2304
801,2022/8/16,13:20,35-22.00N,139-42.43E,177,25.07,31.2012
802,2022/8/16,13:21,35-21.71N,139-42.45E,175,25.126,31.3617
803,2022/8/16,13:22,35-21.41N,139-42.47E,176,25.27,31.4879
804,2022/8/16,13:23,35-21.11N,139-42.49E,176,25.352,31.507
805,2022/8/16,13:24,35-20.80N,139-42.51E,177,25.346,31.4759
806,2022/8/16,13:25,35-20.53N,139-42.53E,176,25.323,31.4674
807,2022/8/16,13:26,35-20.31N,139-42.55E,175,25.257,31.5071
808,2022/8/16,13:27,35-20.09N,139-42.58E,174,25.209,31.5514
809,2022/8/16,13:28,35-19.89N,139-42.61E,169,25.242,31.6238
810,2022/8/16,13:29,35-19.70N,139-42.71E,148,25.241,31.6484
811,2022/8/16,13:30,35-19.50N,139-42.89E,143,25.142,31.6692
812,2022/8/16,13:31,35-19.33N,139-43.04E,144,25.131,31.721
813,2022/8/16,13:32,35-19.18N,139-43.17E,145,25.116,31.7558
814,2022/8/16,13:33,35-19.01N,139-43.31E,145,25.129,31.7495
815,2022/8/16,13:34,35-18.83N,139-43.46E,147,25.419,31.7046
816,2022/8/16,13:35,35-18.65N,139-43.61E,148,25.977,31.6625
817,2022/8/16,13:36,35-18.47N,139-43.74E,145,26.013,31.6658
818,2022/8/16,13:37,35-18.29N,139-43.90E,146,26.098,31.7066
819,2022/8/16,13:38,35-18.11N,139-44.04E,144,25.962,31.7233
820,2022/8/16,13:39,35-17.93N,139-44.21E,142,25.958,31.6881
821,2022/8/16,13:40,35-17.76N,139-44.38E,141,25.734,31.5953
822,2022/8/16,13:41,35-17.59N,139-44.53E,142,25.357,31.6494
823,2022/8/16,13:42,35-17.42N,139-44.69E,143,25.324,31.6759
824,2022/8/16,13:43,35-17.25N,139-44.84E,144,25.378,31.6768
825,2022/8/16,13:44,35-17.07N,139-44.99E,144,25.385,31.6756
826,2022/8/16,13:45,35-16.90N,139-45.14E,145,25.387,31.6827
827,2022/8/16,13:46,35-16.71N,139-45.30E,145,25.402,31.6801
828,2022/8/16,13:47,35-16.54N,139-45.44E,146,25.378,31.6885
829,2022/8/16,13:48,35-16.36N,139-45.59E,146,25.328,31.6996
830,2022/8/16,13:49,35-16.18N,139-45.73E,148,25.281,31.7153
831,2022/8/16,13:50,35-16.00N,139-45.87E,147,25.299,31.7866
832,2022/8/16,13:51,35-15.82N,139-46.01E,148,25.355,31.7892
833,2022/8/16,13:52,35-15.64N,139-46.14E,148,25.424,31.7823
834,2022/8/16,13:53,35-15.46N,139-46.24E,160,25.464,31.752
835,2022/8/16,13:54,35-15.26N,139-46.29E,172,25.485,31.7005
836,2022/8/16,13:55,35-15.05N,139-46.31E,178,25.396,31.6668
837,2022/8/16,13:56,35-14.83N,139-46.32E,177,25.281,31.6744
838,2022/8/16,13:57,35-14.62N,139-46.31E,180,25.259,31.7849
839,2022/8/16,13:58,35-14.41N,139-46.31E,180,25.273,31.8647
840,2022/8/16,13:59,35-14.19N,139-46.31E,180,25.234,31.8855
841,2022/8/16,14:00,35-13.97N,139-46.30E,180,25.164,31.9582
842,2022/8/16,14:01,35-13.75N,139-46.30E,181,25.096,32.0496
843,2022/8/16,14:02,35-13.53N,139-46.29E,181,25.05,32.1535
844,2022/8/16,14:03,35-13.32N,139-46.29E,181,25.055,32.2281
845,2022/8/16,14:04,35-13.11N,139-46.28E,181,25.058,32.3108
846,2022/8/16,14:05,35-12.88N,139-46.27E,181,25.047,32.3425
847,2022/8/16,14:06,35-12.66N,139-46.26E,186,25.025,32.3791
848,2022/8/16,14:07,35-12.41N,139-46.20E,193,24.994,32.4104
849,2022/8/16,14:08,35-12.16N,139-46.12E,193,24.874,32.4557
850,2022/8/16,14:09,35-11.89N,139-46.05E,193,24.787,32.5897
851,2022/8/16,14:10,35-11.62N,139-45.97E,194,24.637,32.6987
852,2022/8/16,14:11,35-11.35N,139-45.87E,195,24.642,32.7381
853,2022/8/16,14:12,35-11.06N,139-45.78E,195,24.614,32.8223
854,2022/8/16,14:13,35-10.80N,139-45.69E,195,24.553,32.9201
855,2022/8/16,14:14,35-10.52N,139-45.60E,195,24.586,32.9226
856,2022/8/16,14:15,35-10.24N,139-45.50E,195,24.598,32.933
857,2022/8/16,14:16,35-09.97N,139-45.40E,196,24.609,32.9421
858,2022/8/16,14:17,35-09.69N,139-45.30E,195,24.548,32.9555
859,2022/8/16,14:18,35-09.41N,139-45.20E,195,24.565,33.0325
860,2022/8/16,14:19,35-09.13N,139-45.11E,195,24.567,33.1041
861,2022/8/16,14:20,35-08.85N,139-45.00E,197,24.43,33.1582
862,2022/8/16,14:21,35-08.59N,139-44.89E,198,24.281,33.2106
863,2022/8/16,14:22,35-08.32N,139-44.77E,199,24.294,33.3248
864,2022/8/16,14:23,35-08.04N,139-44.66E,199,24.287,33.3858
865,2022/8/16,14:24,35-07.78N,139-44.54E,199,24.262,33.3728
866,2022/8/16,14:25,35-07.50N,139-44.43E,198,24.249,33.3633
867,2022/8/16,14:26,35-07.23N,139-44.31E,199,24.289,33.3492
868,2022/8/16,14:27,35-06.95N,139-44.20E,199,24.33,33.3328
869,2022/8/16,14:28,35-06.68N,139-44.08E,199,24.367,33.3183
870,2022/8/16,14:29,35-06.40N,139-43.96E,198,24.444,33.2981
871,2022/8/16,14:30,35-06.12N,139-43.84E,200,24.504,33.2704
872,2022/8/16,14:31,35-05.85N,139-43.72E,200,24.528,33.2327
873,2022/8/16,14:32,35-05.59N,139-43.60E,199,24.527,33.2115
874,2022/8/16,14:33,35-05.33N,139-43.49E,199,24.496,33.1905
875,2022/8/16,14:34,35-05.07N,139-43.37E,199,24.434,33.1597
876,2022/8/16,14:35,35-04.82N,139-43.25E,203,24.424,33.1335
877,2022/8/16,14:36,35-04.57N,139-43.12E,202,24.46,33.1091
878,2022/8/16,14:37,35-04.31N,139-42.99E,203,24.345,33.1034
879,2022/8/16,14:38,35-04.07N,139-42.86E,203,24.318,33.0911
880,2022/8/16,14:39,35-03.82N,139-42.73E,202,24.114,33.0918
881,2022/8/16,14:40,35-03.56N,139-42.62E,196,24.009,33.1364
882,2022/8/16,14:41,35-03.31N,139-42.56E,191,24.008,33.2043
883,2022/8/16,14:42,35-03.03N,139-42.51E,186,24.039,33.2405
884,2022/8/16,14:43,35-02.77N,139-42.49E,182,24.057,33.267
885,2022/8/16,14:44,35-02.49N,139-42.48E,181,24.044,33.2914
886,2022/8/16,14:45,35-02.22N,139-42.48E,180,24.057,33.3391
887,2022/8/16,14:46,35-01.95N,139-42.47E,181,23.975,33.3945
888,2022/8/16,14:47,35-01.67N,139-42.46E,181,23.832,33.458
889,2022/8/16,14:48,35-01.39N,139-42.45E,181,23.771,33.5029
890,2022/8/16,14:49,35-01.13N,139-42.44E,181,23.736,33.5319
891,2022/8/16,14:50,35-00.85N,139-42.41E,186,23.718,33.5426
892,2022/8/16,14:51,35-00.57N,139-42.37E,186,23.73,33.549
893,2022/8/16,14:52,35-00.30N,139-42.34E,185,23.755,33.5533
894,2022/8/16,14:53,35-00.03N,139-42.31E,185,23.758,33.5528
895,2022/8/16,14:54,34-59.75N,139-42.28E,184,23.667,33.5545
896,2022/8/16,14:55,34-59.47N,139-42.26E,183,23.817,33.5444
897,2022/8/16,14:56,34-59.19N,139-42.23E,183,23.98,33.5361
898,2022/8/16,14:57,34-58.90N,139-42.21E,184,24.059,33.4844
899,2022/8/16,14:58,34-58.63N,139-42.19E,183,24.184,33.4193
900,2022/8/16,14:59,34-58.35N,139-42.18E,179,24.326,33.364
901,2022/8/16,15:00,34-58.08N,139-42.28E,153,24.431,33.3043
902,2022/8/16,15:01,34-57.85N,139-42.49E,141,24.453,33.2566
903,2022/8/16,15:02,34-57.59N,139-42.71E,145,24.443,33.2363
904,2022/8/16,15:03,34-57.34N,139-42.91E,146,24.426,33.2151
905,2022/8/16,15:04,34-57.08N,139-43.12E,146,24.343,33.2151
906,2022/8/16,15:05,34-56.81N,139-43.34E,147,24.201,33.2242
907,2022/8/16,15:06,34-56.55N,139-43.54E,146,24.21,33.2655
908,2022/8/16,15:07,34-56.27N,139-43.77E,146,24.143,33.269
909,2022/8/16,15:08,34-56.01N,139-43.99E,144,24.061,33.2868
910,2022/8/16,15:09,34-55.74N,139-44.21E,145,24.04,33.3187
911,2022/8/16,15:10,34-55.46N,139-44.44E,145,23.872,33.3382
912,2022/8/16,15:11,34-55.20N,139-44.66E,145,23.819,33.3542
913,2022/8/16,15:12,34-54.93N,139-44.89E,145,23.851,33.403
914,2022/8/16,15:13,34-54.66N,139-45.10E,146,23.86,33.4381
915,2022/8/16,15:14,34-54.38N,139-45.32E,147,23.824,33.4379
916,2022/8/16,15:15,34-54.09N,139-45.54E,148,23.64,33.4499
917,2022/8/16,15:16,34-53.83N,139-45.75E,146,23.554,33.4977
918,2022/8/16,15:17,34-53.56N,139-45.98E,144,23.598,33.5547
919,2022/8/16,15:18,34-53.29N,139-46.21E,144,23.591,33.5548
920,2022/8/16,15:19,34-53.02N,139-46.44E,143,23.628,33.5763
921,2022/8/16,15:20,34-52.74N,139-46.69E,144,23.562,33.5844
922,2022/8/16,15:21,34-52.48N,139-46.92E,144,23.458,33.5943
923,2022/8/16,15:22,34-52.20N,139-47.15E,145,23.395,33.6335
924,2022/8/16,15:23,34-51.92N,139-47.37E,146,23.331,33.6713
925,2022/8/16,15:24,34-51.65N,139-47.59E,146,23.264,33.6853
926,2022/8/16,15:25,34-51.37N,139-47.83E,146,23.175,33.6829
927,2022/8/16,15:26,34-51.12N,139-48.06E,139,23.032,33.7035
928,2022/8/16,15:27,34-50.90N,139-48.36E,129,22.852,33.7217
929,2022/8/16,15:28,34-50.71N,139-48.70E,119,22.417,33.7676
930,2022/8/16,15:29,34-50.56N,139-49.10E,111,22.257,33.8318
931,2022/8/16,15:30,34-50.46N,139-49.48E,107,22.166,33.9164
932,2022/8/16,15:31,34-50.38N,139-49.80E,106,22.065,33.9582
933,2022/8/16,15:32,34-50.30N,139-50.16E,105,22.586,34.0258
934,2022/8/16,15:33,34-50.21N,139-50.54E,105,22.809,34.0252
935,2022/8/16,15:34,34-50.13N,139-50.89E,104,22.796,33.9892
936,2022/8/16,15:35,34-50.06N,139-51.25E,100,22.824,33.9432
937,2022/8/16,15:36,34-50.08N,139-51.59E,79,22.79,33.9333
938,2022/8/16,15:37,34-50.14N,139-51.93E,76,22.756,33.8947
939,2022/8/16,15:38,34-50.22N,139-52.28E,75,22.713,33.8693
940,2022/8/16,15:39,34-50.29N,139-52.61E,75,22.547,33.8676
941,2022/8/16,15:40,34-50.37N,139-52.96E,74,22.27,33.8633
942,2022/8/16,15:41,34-50.45N,139-53.31E,74,21.904,33.8818
943,2022/8/16,15:42,34-50.53N,139-53.65E,74,21.739,33.9072
944,2022/8/16,15:43,34-50.62N,139-54.00E,73,21.66,33.9286
945,2022/8/16,15:44,34-50.70N,139-54.34E,74,21.632,33.961
946,2022/8/16,15:45,34-50.78N,139-54.69E,74,20.705,33.9639
947,2022/8/16,15:46,34-50.86N,139-55.03E,73,20.466,33.9926
948,2022/8/16,15:47,34-50.94N,139-55.37E,74,19.625,34.0252
949,2022/8/16,15:48,34-51.02N,139-55.72E,74,19.591,34.0886
950,2022/8/16,15:49,34-51.10N,139-56.06E,74,19.929,34.1547
951,2022/8/16,15:50,34-51.18N,139-56.42E,74,19.999,34.1598
952,2022/8/16,15:51,34-51.26N,139-56.76E,73,19.973,34.152
953,2022/8/16,15:52,34-51.34N,139-57.10E,73,19.928,34.1566
954,2022/8/16,15:53,34-51.43N,139-57.46E,73,19.609,34.1536
955,2022/8/16,15:54,34-51.50N,139-57.79E,73,19.394,34.1839
956,2022/8/16,15:55,34-51.61N,139-58.14E,67,19.178,34.2152
957,2022/8/16,15:56,34-51.74N,139-58.44E,58,19.068,34.2275
958,2022/8/16,15:57,34-51.90N,139-58.75E,58,18.938,34.2601
959,2022/8/16,15:58,34-52.06N,139-59.07E,58,18.77,34.2803
960,2022/8/16,15:59,34-52.21N,139-59.38E,59,18.664,34.2945
961,2022/8/16,16:00,34-52.36N,139-59.70E,59,18.599,34.299
962,2022/8/16,16:01,34-52.52N,140-00.02E,59,18.536,34.3163
963,2022/8/16,16:02,34-52.67N,140-00.32E,59,18.511,34.3221
964,2022/8/16,16:03,34-52.83N,140-00.64E,58,18.436,34.3215
965,2022/8/16,16:04,34-52.98N,140-00.95E,58,18.381,34.3258
966,2022/8/16,16:05,34-53.15N,140-01.27E,56,18.335,34.3411
967,2022/8/16,16:06,34-53.31N,140-01.56E,56,18.292,34.3573
968,2022/8/16,16:07,34-53.47N,140-01.86E,57,18.272,34.3648
969,2022/8/16,16:08,34-53.64N,140-02.18E,57,18.232,34.3753
970,2022/8/16,16:09,34-53.80N,140-02.49E,57,18.241,34.3892
971,2022/8/16,16:10,34-53.96N,140-02.79E,57,18.442,34.4016
972,2022/8/16,16:11,34-54.12N,140-03.10E,57,18.432,34.4009
973,2022/8/16,16:12,34-54.28N,140-03.41E,57,18.438,34.3948
974,2022/8/16,16:13,34-54.45N,140-03.72E,56,18.479,34.4013
975,2022/8/16,16:14,34-54.62N,140-04.03E,57,18.419,34.4035
976,2022/8/16,16:15,34-54.78N,140-04.35E,57,18.331,34.3959
977,2022/8/16,16:16,34-54.93N,140-04.64E,58,18.315,34.4046
978,2022/8/16,16:17,34-55.09N,140-04.96E,58,18.35,34.3975
979,2022/8/16,16:18,34-55.26N,140-05.29E,57,18.438,34.4029
980,2022/8/16,16:19,34-55.41N,140-05.57E,57,18.518,34.4008
981,2022/8/16,16:20,34-55.57N,140-05.89E,60,18.544,34.4026
982,2022/8/16,16:21,34-55.71N,140-06.20E,61,18.525,34.3928
983,2022/8/16,16:22,34-55.85N,140-06.52E,60,18.54,34.3962
984,2022/8/16,16:23,34-55.99N,140-06.84E,61,18.614,34.4028
985,2022/8/16,16:24,34-56.13N,140-07.15E,61,18.748,34.3987
986,2022/8/16,16:25,34-56.28N,140-07.47E,61,18.914,34.3971
987,2022/8/16,16:26,34-56.42N,140-07.80E,61,18.94,34.3816
988,2022/8/16,16:27,34-56.56N,140-08.10E,61,18.909,34.3853
989,2022/8/16,16:28,34-56.70N,140-08.42E,62,18.861,34.3912
990,2022/8/16,16:29,34-56.84N,140-08.74E,61,18.853,34.4006
991,2022/8/16,16:30,34-56.98N,140-09.05E,60,18.78,34.4093
992,2022/8/16,16:31,34-57.12N,140-09.34E,60,18.799,34.4146
993,2022/8/16,16:32,34-57.27N,140-09.66E,60,18.796,34.414
994,2022/8/16,16:33,34-57.42N,140-09.98E,60,18.748,34.4101
995,2022/8/16,16:34,34-57.57N,140-10.29E,60,18.652,34.4124
996,2022/8/16,16:35,34-57.72N,140-10.63E,61,18.409,34.4129
997,2022/8/16,16:36,34-57.86N,140-10.93E,60,18.264,34.4349
998,2022/8/16,16:37,34-58.01N,140-11.25E,60,18.223,34.4472
999,2022/8/16,16:38,34-58.16N,140-11.57E,59,18.17,34.4625
1000,2022/8/16,16:39,34-58.31N,140-11.87E,60,18.246,34.4705
1001,2022/8/16,16:40,34-58.47N,140-12.20E,59,18.347,34.467
1002,2022/8/16,16:41,34-58.61N,140-12.49E,59,18.714,34.4622
1003,2022/8/16,16:42,34-58.77N,140-12.80E,58,19.004,34.4545
1004,2022/8/16,16:43,34-58.92N,140-13.11E,58,19.132,34.4259
1005,2022/8/16,16:44,34-59.07N,140-13.41E,58,19.325,34.4013
1006,2022/8/16,16:45,34-59.22N,140-13.72E,58,19.364,34.3853
1007,2022/8/16,16:46,34-59.37N,140-14.02E,58,19.387,34.3788
1008,2022/8/16,16:47,34-59.53N,140-14.33E,58,19.405,34.3782
1009,2022/8/16,16:48,34-59.68N,140-14.64E,59,19.38,34.3781
1010,2022/8/16,16:49,34-59.83N,140-14.94E,59,19.248,34.3809
1011,2022/8/16,16:50,34-59.99N,140-15.26E,59,19.19,34.3841
1012,2022/8/16,16:51,35-00.14N,140-15.57E,60,18.969,34.3872
1013,2022/8/16,16:52,35-00.28N,140-15.89E,60,18.727,34.3972
1014,2022/8/16,16:53,35-00.43N,140-16.20E,60,18.784,34.4158
1015,2022/8/16,16:54,35-00.58N,140-16.51E,60,19.149,34.4326
1016,2022/8/16,16:55,35-00.72N,140-16.83E,60,19.28,34.4257
1017,2022/8/16,16:56,35-00.87N,140-17.15E,60,19.299,34.4106
1018,2022/8/16,16:57,35-01.01N,140-17.45E,60,19.264,34.4095
1019,2022/8/16,16:58,35-01.17N,140-17.76E,60,19.254,34.3936
1020,2022/8/16,16:59,35-01.31N,140-18.07E,60,19.132,34.3912
1021,2022/8/16,17:00,35-01.46N,140-18.39E,59,19.03,34.383
1022,2022/8/16,17:01,35-01.61N,140-18.69E,58,18.983,34.3829
1023,2022/8/16,17:02,35-01.76N,140-19.00E,59,18.752,34.3802
1024,2022/8/16,17:03,35-01.92N,140-19.33E,59,18.572,34.387
1025,2022/8/16,17:04,35-02.05N,140-19.63E,63,18.545,34.3991
1026,2022/8/16,17:05,35-02.18N,140-19.95E,62,18.515,34.4032
1027,2022/8/16,17:06,35-02.32N,140-20.25E,61,18.409,34.4233
1028,2022/8/16,17:07,35-02.46N,140-20.56E,61,18.276,34.427
1029,2022/8/16,17:08,35-02.60N,140-20.87E,61,18.199,34.4313
1030,2022/8/16,17:09,35-02.73N,140-21.18E,62,17.905,34.4434
1031,2022/8/16,17:10,35-02.87N,140-21.49E,60,17.84,34.4542
1032,2022/8/16,17:11,35-03.02N,140-21.80E,60,17.589,34.4699
1033,2022/8/16,17:12,35-03.15N,140-22.10E,61,17.565,34.4819
1034,2022/8/16,17:13,35-03.29N,140-22.41E,61,17.58,34.4939
1035,2022/8/16,17:14,35-03.42N,140-22.71E,61,17.588,34.4958
1036,2022/8/16,17:15,35-03.56N,140-23.02E,61,17.709,34.494
1037,2022/8/16,17:16,35-03.70N,140-23.32E,60,17.801,34.4869
1038,2022/8/16,17:17,35-03.83N,140-23.62E,61,17.865,34.4753
1039,2022/8/16,17:18,35-03.98N,140-23.93E,59,18.347,34.4696
1040,2022/8/16,17:19,35-04.12N,140-24.24E,61,18.933,34.4634
1041,2022/8/16,17:20,35-04.26N,140-24.55E,61,19.285,34.4292
1042,2022/8/16,17:21,35-04.41N,140-24.87E,60,19.507,34.3726
1043,2022/8/16,17:22,35-04.55N,140-25.17E,57,19.667,34.3272
1044,2022/8/16,17:23,35-04.74N,140-25.43E,45,19.771,34.2998
1045,2022/8/16,17:24,35-04.95N,140-25.68E,45,19.813,34.2757
1046,2022/8/16,17:25,35-05.15N,140-25.93E,45,19.827,34.2676
1047,2022/8/16,17:26,35-05.35N,140-26.20E,50,19.626,34.2545
1048,2022/8/16,17:27,35-05.55N,140-26.48E,49,19.747,34.2553
1049,2022/8/16,17:28,35-05.74N,140-26.77E,52,19.995,34.2675
1050,2022/8/16,17:29,35-05.92N,140-27.06E,53,20.077,34.2576
1051,2022/8/16,17:30,35-06.10N,140-27.36E,53,20.136,34.2524
1052,2022/8/16,17:31,35-06.27N,140-27.66E,53,20.212,34.2315
1053,2022/8/16,17:32,35-06.45N,140-27.95E,53,20.292,34.2219
1054,2022/8/16,17:33,35-06.63N,140-28.26E,53,20.327,34.2019
1055,2022/8/16,17:34,35-06.81N,140-28.55E,54,20.347,34.1927
1056,2022/8/16,17:35,35-06.98N,140-28.85E,54,20.351,34.1826
1057,2022/8/16,17:36,35-07.17N,140-29.18E,55,20.308,34.187
1058,2022/8/16,17:37,35-07.33N,140-29.46E,54,20.33,34.1862
1059,2022/8/16,17:38,35-07.50N,140-29.76E,55,20.425,34.1901
1060,2022/8/16,17:39,35-07.67N,140-30.06E,54,20.617,34.179
1061,2022/8/16,17:40,35-07.85N,140-30.37E,54,20.812,34.1732
1062,2022/8/16,17:41,35-08.03N,140-30.67E,54,20.998,34.142
1063,2022/8/16,17:42,35-08.20N,140-30.97E,54,21.203,34.1243
1064,2022/8/16,17:43,35-08.38N,140-31.28E,54,21.337,34.0934
1065,2022/8/16,17:44,35-08.56N,140-31.59E,53,21.399,34.0601
1066,2022/8/16,17:45,35-08.74N,140-31.88E,54,21.467,34.0265
1067,2022/8/16,17:46,35-08.93N,140-32.20E,54,21.492,34.0108
1068,2022/8/16,17:47,35-09.10N,140-32.50E,53,21.53,33.9998
1069,2022/8/16,17:48,35-09.31N,140-32.77E,43,21.537,33.9919
1070,2022/8/16,17:49,35-09.55N,140-33.00E,36,21.556,33.9854
1071,2022/8/16,17:50,35-09.78N,140-33.20E,35,21.534,33.9795
1072,2022/8/16,17:51,35-10.04N,140-33.42E,35,21.515,33.9779
1073,2022/8/16,17:52,35-10.28N,140-33.64E,36,21.5,33.9848
1074,2022/8/16,17:53,35-10.53N,140-33.87E,36,21.442,33.99
1075,2022/8/16,17:54,35-10.78N,140-34.09E,36,21.371,33.9953
1076,2022/8/16,17:55,35-11.04N,140-34.33E,36,21.363,34.0014
1077,2022/8/16,17:56,35-11.32N,140-34.58E,36,21.359,34.0077
1078,2022/8/16,17:57,35-11.56N,140-34.79E,35,21.346,34.0137
1079,2022/8/16,17:58,35-11.82N,140-35.03E,36,21.338,34.0229
1080,2022/8/16,17:59,35-12.06N,140-35.25E,36,21.307,34.0237
1081,2022/8/16,18:00,35-12.28N,140-35.44E,36,21.323,34.0241
1082,2022/8/16,18:01,35-12.53N,140-35.67E,35,21.293,34.0156
1083,2022/8/16,18:02,35-12.78N,140-35.89E,35,21.24,34.0181
1084,2022/8/16,18:03,35-13.03N,140-36.12E,36,21.197,34.0272
1085,2022/8/16,18:04,35-13.29N,140-36.35E,36,21.208,34.0368
1086,2022/8/16,18:05,35-13.56N,140-36.59E,36,21.212,34.0431
1087,2022/8/16,18:06,35-13.82N,140-36.82E,35,21.229,34.0417
1088,2022/8/16,18:07,35-14.07N,140-37.04E,36,21.259,34.0399
1089,2022/8/16,18:08,35-14.33N,140-37.27E,35,21.276,34.0333
1090,2022/8/16,18:09,35-14.59N,140-37.50E,35,21.217,34.0307
1091,2022/8/16,18:10,35-14.83N,140-37.72E,35,21.111,34.0325
1092,2022/8/16,18:11,35-15.10N,140-37.95E,35,21.091,34.0435
1093,2022/8/16,18:12,35-15.36N,140-38.18E,36,21.087,34.0517
1094,2022/8/16,18:13,35-15.62N,140-38.41E,35,21.055,34.0495
1095,2022/8/16,18:14,35-15.87N,140-38.62E,35,20.986,34.0586
1096,2022/8/16,18:15,35-16.13N,140-38.85E,35,20.991,34.0602
1097,2022/8/16,18:16,35-16.35N,140-39.04E,34,21.024,34.0714
1098,2022/8/16,18:17,35-16.61N,140-39.26E,35,21.043,34.0776
1099,2022/8/16,18:18,35-16.88N,140-39.49E,34,20.949,34.0805
1100,2022/8/16,18:19,35-17.14N,140-39.72E,35,20.892,34.0855
1101,2022/8/16,18:20,35-17.39N,140-39.93E,34,20.741,34.0956
1102,2022/8/16,18:21,35-17.66N,140-40.16E,35,20.672,34.1194
1103,2022/8/16,18:22,35-17.91N,140-40.38E,34,20.639,34.14
1104,2022/8/16,18:23,35-18.18N,140-40.60E,34,20.643,34.152
1105,2022/8/16,18:24,35-18.43N,140-40.82E,34,20.58,34.1658
1106,2022/8/16,18:25,35-18.69N,140-41.04E,34,20.533,34.1735
1107,2022/8/16,18:26,35-18.96N,140-41.27E,35,20.507,34.1863
1108,2022/8/16,18:27,35-19.22N,140-41.48E,34,20.491,34.194
1109,2022/8/16,18:28,35-19.48N,140-41.71E,34,20.421,34.1999
1110,2022/8/16,18:29,35-19.75N,140-41.93E,34,20.433,34.2049
1111,2022/8/16,18:30,35-20.00N,140-42.15E,34,20.402,34.207
1112,2022/8/16,18:31,35-20.26N,140-42.37E,34,20.381,34.2031
1113,2022/8/16,18:32,35-20.53N,140-42.59E,34,20.409,34.2112
1114,2022/8/16,18:33,35-20.80N,140-42.82E,35,20.34,34.2039
1115,2022/8/16,18:34,35-21.05N,140-43.04E,35,20.205,34.2047
1116,2022/8/16,18:35,35-21.33N,140-43.27E,34,20.16,34.2127
1117,2022/8/16,18:36,35-21.58N,140-43.48E,33,20.158,34.2224
1118,2022/8/16,18:37,35-21.84N,140-43.70E,33,20.202,34.2236
1119,2022/8/16,18:38,35-22.12N,140-43.92E,34,20.24,34.2277
1120,2022/8/16,18:39,35-22.37N,140-44.14E,34,20.276,34.2254
1121,2022/8/16,18:40,35-22.67N,140-44.38E,33,20.286,34.2286
1122,2022/8/16,18:41,35-22.95N,140-44.61E,34,20.356,34.2223
1123,2022/8/16,18:42,35-23.21N,140-44.83E,34,20.397,34.2151
1124,2022/8/16,18:43,35-23.46N,140-45.03E,34,20.435,34.2126
1125,2022/8/16,18:44,35-23.73N,140-45.26E,34,20.436,34.2073
1126,2022/8/16,18:45,35-23.99N,140-45.48E,33,20.384,34.2089
1127,2022/8/16,18:46,35-24.27N,140-45.71E,34,20.368,34.2077
1128,2022/8/16,18:47,35-24.52N,140-45.93E,35,20.364,34.2165
1129,2022/8/16,18:48,35-24.79N,140-46.17E,35,20.326,34.2167
1130,2022/8/16,18:49,35-25.05N,140-46.38E,34,20.308,34.2106
1131,2022/8/16,18:50,35-25.32N,140-46.61E,34,20.254,34.2128
1132,2022/8/16,18:51,35-25.60N,140-46.85E,34,20.117,34.2153
1133,2022/8/16,18:52,35-25.86N,140-47.07E,34,20.021,34.2262